Location: Newark
(30.3369°N, 81.6614°W)
Time: 19:44:57
(UTC+00:00)

N. Korean satellite - Pass Details

Date: 01 October 2020
Orbit: 452 x 505 km, 97.2° (Epoch: 28 October)

Event Time Altitude Azimuth Distance (km) Brightness Sun altitude
Rises 10:35:48 0° 18° (NNE) 2,545 10.5 -10.5°
Reaches altitude 10° 10:37:56 10° 24° (NNE) 1,653 9.6 -10.0°
Maximum altitude 10:41:22 48° 99° (E) 624 7.7 -9.3°
Drops below altitude 10° 10:44:44 10° 175° (S) 1,613 9.3 -8.5°
Sets 10:46:47 0° 181° (S) 2,476 10.1 -8.1°
